www.pogodaiklimat.ru

Погода и климат >> Архив погоды >> Австралия >> Западная Австралия >> Джайлс


ПОГОДА в Джайлсе

  • Прогноз погоды в Джайлсе
  • Монитор погоды в Джайлсе

АРХИВ ПОГОДЫ в Джайлсе

Время (UTC), дата Ветер
(напр.,м/с)
 
Видим.   Явления Облачность Т
(С)
Тd
(С)
f
(%)
Тe
(С)
Тes
(С)
Комфортность P
(гПа)
Po
(гПа)
Тmin
(С)
Tmax
(С)
R
(мм)
R24
(мм)
S
(см)
01 14.05 В 5 н/о н/о +18.3 -5.4 19 +18 +18 1024.4 955.6
02 14.05 В 5 40 км ясно +19.8 -6.7 16 +19 +19 1024.2 955.3 +5.4
03 14.05 В 5 н/о н/о +21.1 -9.2 12 +20 +20 1023.0 954.2
04 14.05 В 4 н/о н/о +22.0 -9.5 11 +20 +20 1022.1 953.3
05 14.05 В 4 40 км ясно +23.3 -12.7 8 +20 +20 1021.3 952.6
06 14.05 В 5 н/о н/о +23.7 -11.0 9 +21 +21 комфорт 1021.0 952.3
07 14.05 В 5 н/о н/о +23.9 -15.3 6 +21 +21 комфорт 1020.8 952.1
08 14.05 ЮВ 6 40 км 1/0
[Ac trans]
+23.3 -16.5 6 +20 +20 1021.0 952.3
09 14.05 ЮВ 4 н/о н/о +20.5 -12.8 9 +20 +20 1021.6 952.9
10 14.05 В 3 н/о н/о +17.6 -10.1 14 +18 +18 1022.3 953.5
11 14.05 В 4 40 км ясно +15.6 -9.7 17 +15 +15 1022.8 954.0
12 14.05 В 4 н/о н/о +14.9 -9.3 18 +14 +14 1023.2 954.4
13 14.05 В 4 н/о н/о +14.3 -9.1 19 +14 +14 1023.6 954.7
14 14.05 В 4 н/о н/о +13.8 -8.7 20 +13 +13 1023.5 954.6 +24.6
15 14.05 В 4 н/о н/о +12.7 -8.7 22 +12 +12 1023.1 954.3
16 14.05 В 4 н/о н/о +12.6 -7.3 24 +11 +11 1022.9 954.1
17 14.05 В 3 н/о н/о +8.7 -7.8 30 +7 +7 1023.0 954.2
18 14.05 В 3 н/о н/о +9.7 -5.4 34 +8 +8 1022.8 954.0
19 14.05 штиль 0 н/о н/о +8.2 -6.0 36 +8 +8 1022.8 954.0
20 14.05 ЮВ 3 40 км ясно +8.5 -6.3 34 +7 +7 1022.9 954.1
21 14.05 В 5 н/о н/о +9.0 -5.4 36 +6 +6 1023.4 954.5
22 14.05 В 3 н/о н/о +6.4 -5.3 43 +4 +4 1024.0 955.1
23 14.05 В 3 40 км ясно +14.3 -4.2 27 +14 +14 1024.2 955.3
00 15.05 В 6 н/о н/о +17.1 -5.4 21 +16 +16 1024.6 955.7
01 15.05 В 7 н/о н/о +19.5 -5.4 18 +19 +19 1024.5 955.6
02 15.05 В 6 40 км ясно +21.1 -4.3 18 +20 +20 1024.1 955.2 +6.0
03 15.05 СВ 4 н/о н/о +21.7 -4.2 17 +21 +21 комфорт 1023.1 954.3
04 15.05 В 4 н/о н/о +22.3 -4.1 17 +21 +21 комфорт 1022.2 953.4
05 15.05 ЮВ 2 40 км ясно +23.1 -5.0 15 +21 +21 комфорт 1021.1 952.4
06 15.05 В 3 н/о н/о +23.9 -7.0 12 +22 +22 комфорт 1021.0 952.3
07 15.05 ЮВ 3 н/о н/о +24.0 -6.7 12 +22 +22 комфорт 1020.8 952.1
08 15.05 В 4 40 км 1/0
[Ac trans]
+23.6 -6.8 13 +22 +22 комфорт 1020.7 952.0
09 15.05 В 3 н/о н/о +20.7 -4.8 18 +21 +21 комфорт 1021.0 952.3
10 15.05 В 4 н/о н/о +18.0 -6.1 19 +18 +18 1021.4 952.7
11 15.05 В 3 40 км ясно +16.4 -5.0 23 +16 +16 1022.0 953.2
12 15.05 В 4 н/о н/о +16.5 -4.4 24 +16 +16 1022.4 953.6
13 15.05 В 4 н/о н/о +16.7 -3.9 24 +16 +16 1022.2 953.4
14 15.05 В 4 н/о н/о +15.2 -3.6 27 +15 +15 1022.0 953.2 +24.6
15 15.05 В 4 н/о н/о +14.3 -3.7 29 +13 +13 1021.3 952.6
16 15.05 В 5 н/о н/о +15.4 -2.0 30 +14 +14 1020.8 952.1
17 15.05 В 5 н/о н/о +15.0 -0.6 34 +14 +14 1020.5 951.8
18 15.05 В 4 н/о н/о +13.8 +0.2 39 +13 +13 1020.2 951.6
19 15.05 В 1 н/о н/о +9.5 -1.2 47 +10 +10 1020.4 951.7
20 15.05 В 2 30 км ясно +10.7 +0.2 48 +10 +10 1020.5 951.8
21 15.05 В 2 н/о н/о +10.5 +1.8 55 +9 +9 1020.7 952.0
22 15.05 В 4 н/о н/о +11.4 +2.7 55 +10 +10 1020.9 952.2
23 15.05 В 5 30 км ясно +16.1 +4.0 44 +15 +15 1021.1 952.4
00 16.05 В 5 н/о н/о +19.9 +5.5 39 +20 +20 1021.1 952.4
01 16.05 СВ 6 н/о н/о +22.2 +6.0 35 +23 +23 комфорт 1021.0 952.3
02 16.05 СВ 7 30 км ясно +23.2 +5.9 33 +24 +24 комфорт 1020.4 951.7 +8.9
03 16.05 СВ 5 н/о н/о +24.2 +5.3 29 +24 +24 комфорт 1019.4 950.8
04 16.05 С 6 н/о н/о +25.6 +3.2 23 +24 +24 комфорт 1018.1 949.6
05 16.05 С 3 40 км ясно +26.9 +3.0 21 +25 +25 комфорт 1017.2 948.9
06 16.05 С 4 н/о н/о +26.3 +2.9 22 +25 +25 комфорт 1016.7 948.3
07 16.05 С 3 н/о н/о +27.1 +0.9 18 +25 +25 комфорт 1016.3 947.9
08 16.05 С 1 40 км ясно +26.6 +2.4 21 +25 +25 комфорт 1016.5 948.1
09 16.05 С 2 н/о н/о +23.8 +2.4 25 +23 +23 комфорт 1016.9 948.5
10 16.05 С 2 н/о н/о +23.1 +2.4 26 +23 +23 комфорт 1017.5 949.0
11 16.05 штиль 0 40 км ясно +21.2 +2.9 30 +21 +21 комфорт 1018.0 949.5
12 16.05 С 3 н/о н/о +19.9 +2.6 32 +21 +21 комфорт 1018.4 949.9
13 16.05 В 3 н/о н/о +21.1 +3.0 30 +21 +21 комфорт 1018.0 949.5
14 16.05 СВ 2 н/о н/о +19.6 +4.2 36 +21 +21 комфорт 1017.9 949.4 +27.4
15 16.05 В 1 н/о н/о +16.4 +2.1 38 +17 +17 1017.6 949.1
16 16.05 СВ 3 н/о н/о +16.9 +3.2 40 +17 +17 1017.2 948.8
17 16.05 В 3 н/о н/о +18.2 +3.7 38 +18 +18 1016.8 948.4
18 16.05 В 3 н/о н/о +18.4 +3.8 38 +19 +19 1016.7 948.3
19 16.05 В 4 н/о н/о +19.1 +3.7 36 +19 +19 1016.1 947.7
20 16.05 В 3 40 км ясно +19.1 +4.3 38 +20 +20 1016.0 947.6
21 16.05 В 3 н/о н/о +18.3 +4.2 39 +19 +19 1016.1 947.7
22 16.05 В 4 н/о н/о +18.6 +4.4 39 +19 +19 1016.4 948.0
23 16.05 В 5 40 км 1/0
[Ac trans]
+20.5 +5.3 37 +21 +21 комфорт 1016.7 948.3
00 17.05 В 3 н/о н/о +22.6 +5.6 33 +23 +23 комфорт 1017.0 948.6
01 17.05 С 6 н/о н/о +24.5 +2.7 24 +24 +24 комфорт 1017.0 948.6
02 17.05 С 6 40 км 6/1 2000 м
[Cu hum Ac trans Ci]
+26.1 +4.4 25 +25 +25 комфорт 1016.5 948.1 +15.7
03 17.05 С 5 н/о н/о +27.6 +3.8 22 +26 +26 жарко 1015.3 947.0
04 17.05 С 7 н/о н/о +28.3 +1.3 17 +26 +26 жарко 1014.0 945.8
05 17.05 С 6 30 км 5/1
[Cu hum Ci fib]
+28.4 +2.3 19 +26 +26 жарко 1013.2 945.0
06 17.05 СЗ 7 н/о н/о +30.1 +1.2 16 +28 +28 жарко 1012.6 944.5
07 17.05 СЗ 7 н/о н/о +29.8 +0.9 16 +27 +27 жарко 1012.3 944.2
08 17.05 СЗ 6 30 км 1/1 2000 м
[Cu med, cong Ci fib]
+29.3 -0.7 14 +26 +26 жарко 1012.4 944.3
09 17.05 СЗ 4 н/о н/о +27.3 -0.1 17 +25 +25 комфорт 1013.1 944.9
10 17.05 СЗ 3 н/о н/о +24.7 +1.5 22 +24 +24 комфорт 1013.8 945.6
11 17.05 СЗ 3 30 км 4/0
[Ac cast Ci fib]
+24.0 +1.8 23 +23 +23 комфорт 1014.4 946.1
12 17.05 СЗ 2 н/о н/о +23.8 +2.1 24 +23 +23 комфорт 1014.7 946.4
13 17.05 СЗ 3 н/о н/о +23.6 +1.7 24 +23 +23 комфорт 1014.8 946.5
14 17.05 СЗ 2 н/о 10/0
[]
+22.9 +2.1 25 +22 +22 комфорт 1014.8 946.5 +30.6
15 17.05 СЗ 3 н/о н/о +22.2 +1.1 25 +22 +22 комфорт 1014.8 946.5
16 17.05 ЮЗ 3 н/о н/о +19.3 -1.3 25 +20 +20 1015.6 947.3
17 17.05 ЮЗ 3 н/о 1/0
[]
+17.6 -2.0 26 +18 +18 1015.9 947.5
18 17.05 Ю 3 н/о н/о +16.0 -1.2 31 +16 +16 1016.4 948.0
19 17.05 Ю 4 н/о н/о +15.2 +2.7 43 +14 +14 1016.7 948.3
20 17.05 Ю 4 40 км 6/6
[Sc]
+13.5 +4.4 54 +12 +12 1016.9 948.5
21 17.05 ЮВ 3 н/о н/о +13.1 +4.9 57 +12 +12 1017.5 949.0
22 17.05 ЮВ 4 н/о н/о +13.0 +5.6 61 +12 +12 1018.1 949.6
23 17.05 ЮВ 4 40 км 6/0
[Ac As Cc]
+13.8 +6.8 63 +13 +13 1018.6 950.1
00 18.05 ЮВ 4 н/о н/о +15.8 +7.2 57 +15 +15 1018.7 950.2
01 18.05 В 6 н/о н/о +20.4 +4.0 34 +21 +21 комфорт 1018.6 950.1
02 18.05 В 4 40 км 1/0
[Ac trans]
+22.8 +0.4 23 +22 +22 комфорт 1018.2 949.7 +12.6
03 18.05 В 4 н/о н/о +24.9 -4.5 14 +23 +23 комфорт 1017.2 948.8
04 18.05 С 3 н/о н/о +27.1 -6.6 10 +24 +24 комфорт 1016.3 947.9
05 18.05 З 4 30 км ясно +27.8 -10.0 8 +24 +24 комфорт 1015.6 947.3
06 18.05 З 3 н/о н/о +28.3 -10.9 7 +24 +24 комфорт 1015.4 947.2
07 18.05 СЗ 4 н/о н/о +28.1 -6.8 10 +25 +25 комфорт 1015.6 947.3
08 18.05 ЮЗ 5 30 км 1/1
[Cu med, cong]
+26.8 -2.3 15 +24 +24 комфорт 1016.2 947.8
09 18.05 ЮЗ 5 н/о н/о +23.9 -0.7 20 +23 +23 комфорт 1017.0 948.6
10 18.05 ЮЗ 4 н/о н/о +21.2 +0.2 25 +21 +21 комфорт 1018.0 949.5
11 18.05 ЮЗ 3 30 км ясно +18.9 +0.8 30 +19 +19 1018.6 950.1
12 18.05 ЮЗ 3 н/о н/о +17.6 +0.9 32 +18 +18 1019.4 950.8
13 18.05 ЮЗ 3 н/о н/о +15.4 +1.1 38 +15 +15 1019.9 951.3
14 18.05 ЮЗ 3 н/о н/о +14.5 0.0 37 +14 +14 1020.1 951.5 +29.1
15 18.05 ЮЗ 3 н/о н/о +13.8 -0.5 37 +13 +13 1020.1 951.5
16 18.05 ЮЗ 3 н/о н/о +12.5 -0.9 40 +11 +11 1020.2 951.6
17 18.05 ЮВ 4 н/о н/о +11.9 -1.6 39 +10 +10 1020.5 951.8
18 18.05 В 5 н/о н/о +11.5 -1.5 40 +10 +10 1020.2 951.6
19 18.05 В 4 н/о н/о +9.9 -1.3 46 +8 +8 1020.0 951.4
20 18.05 В 3 40 км ясно +10.2 +0.5 51 +8 +8 1020.2 951.6
21 18.05 В 3 н/о н/о +8.9 -0.1 53 +7 +7 1020.5 951.8
22 18.05 ЮВ 4 н/о н/о +8.4 -0.5 53 +6 +6 1020.9 952.2
23 18.05 В 4 40 км 1/1 600 м
[Sc]
+11.2 -1.3 42 +9 +9 1021.4 952.7
00 19.05 ЮВ 5 н/о н/о +15.1 -0.7 34 +14 +14 1021.5 952.8
01 19.05 ЮВ 4 н/о н/о +17.3 0.0 31 +17 +17 1021.7 953.0
02 19.05 ЮВ 3 40 км 1/1 600 м
[Sc]
+20.2 +1.7 29 +21 +21 комфорт 1021.1 952.4 +8.3
03 19.05 ЮВ 2 н/о н/о +22.7 +6.8 36 +23 +23 комфорт 1020.1 951.5
04 19.05 СВ 3 н/о н/о +24.7 +8.5 36 +25 +25 комфорт 1019.3 950.7
05 19.05 С 3 40 км 1/1 2000 м
[Cu hum]
+26.6 +5.0 25 +26 +26 жарко 1018.4 949.9
06 19.05 СЗ 4 н/о н/о +27.6 +3.4 21 +26 +26 жарко 1017.8 949.3
07 19.05 СЗ 4 н/о н/о +27.6 -2.5 14 +25 +25 комфорт 1017.8 949.3
08 19.05 СЗ 3 40 км 1/1 2000 м
[Cu hum]
+27.1 -0.7 16 +25 +25 комфорт 1018.0 949.5
09 19.05 З 3 н/о н/о +24.0 -4.5 15 +22 +22 комфорт 1018.5 950.0
10 19.05 З 3 н/о н/о +21.8 -10.0 11 +20 +20 1018.9 950.3
11 19.05 З 4 40 км ясно +19.2 -8.2 15 +19 +19 1019.6 951.0
12 19.05 З 3 н/о н/о +17.6 -7.1 18 +18 +18 1020.5 951.8
13 19.05 З 3 н/о н/о +16.4 -6.5 20 +16 +16 1020.8 952.1
14 19.05 З 4 н/о н/о +16.8 -7.0 19 +17 +17 1020.8 952.1 +28.3
15 19.05 В 4 н/о н/о +16.4 -5.5 22 +16 +16 1020.9 952.2
16 19.05 В 5 н/о н/о +15.8 -5.4 23 +15 +15 1020.7 952.0
17 19.05 В 5 н/о н/о +15.8 -5.0 24 +15 +15 1020.4 951.7
18 19.05 В 4 н/о н/о +15.2 -4.0 26 +14 +14 1019.9 951.3
19 19.05 В 5 н/о н/о +15.8 -3.6 26 +15 +15 1019.5 950.9
20 19.05 В 4 40 км 6/0
[Ci sp]
+13.1 -2.8 33 +12 +12 1019.3 950.7
21 19.05 СВ 3 н/о н/о +11.2 -3.1 37 +10 +10 1019.4 950.8
22 19.05 С 2 н/о н/о +10.5 -2.0 42 +10 +10 1019.9 951.3
23 19.05 СВ 2 40 км 1/1 2000 м
[Cu hum Ci sp]
+15.4 -1.7 31 +16 +16 1020.5 951.8
00 20.05 СВ 1 н/о н/о +19.7 -1.0 25 +21 +21 комфорт 1020.9 952.2
01 20.05 С 3 н/о н/о +25.5 -3.5 14 +23 +23 комфорт 1021.1 952.4
02 20.05 С 4 40 км ясно +27.0 -2.3 14 +24 +24 комфорт 1020.9 952.2 +10.0
03 20.05 СЗ 4 н/о н/о +28.6 -9.2 8 +25 +25 комфорт 1020.2 951.6
04 20.05 СЗ 4 н/о н/о +29.4 -11.9 6 +25 +25 комфорт 1019.3 950.7
05 20.05 СЗ 4 40 км 1/1 2000 м
[Cu hum]
+29.4 -11.0 6 +25 +25 комфорт 1018.5 950.0
06 20.05 З 3 н/о н/о +29.7 -13.0 5 +25 +25 комфорт 1018.2 949.7
07 20.05 З 5 н/о н/о +29.4 -13.7 5 +25 +25 комфорт 1018.2 949.7
08 20.05 З 6 40 км 1/1 2000 м
[Cu hum]
+28.4 -13.3 6 +24 +24 комфорт 1018.6 950.1
09 20.05 З 3 н/о н/о +25.4 -9.5 9 +22 +22 комфорт 1019.2 950.6
10 20.05 З 3 н/о н/о +22.0 -10.1 11 +20 +20 1019.9 951.3
11 20.05 З 3 40 км 1/0
[Ac trans]
+20.3 -13.6 9 +20 +20 1020.5 951.8
12 20.05 З 1 н/о н/о +18.5 -6.9 17 +20 +20 1021.0 952.3
13 20.05 З 2 н/о н/о +18.8 -14.8 9 +19 +19 1021.1 952.4
14 20.05 З 3 н/о н/о +18.0 -15.5 9 +18 +18 1021.1 952.4 +30.2
15 20.05 З 4 н/о н/о +18.1 -19.3 6 +18 +18 1021.0 952.3
16 20.05 З 4 н/о н/о +18.2 -17.6 7 +18 +18 1020.8 952.1
17 20.05 З 4 н/о 3/0
[]
+17.7 -19.1 7 +17 +17 1020.8 952.1
18 20.05 З 4 н/о н/о +18.3 -23.8 4 +18 +18 1020.7 952.0
19 20.05 В 5 н/о н/о +17.9 -20.5 6 +18 +18 1020.4 951.7
20 20.05 ЮВ 4 30 км 4/0
[Ac trans]
+13.6 -16.4 11 +13 +13 1020.5 951.8
21 20.05 В 4 н/о н/о +13.8 -14.8 12 +13 +13 1020.7 952.0
22 20.05 В 4 н/о н/о +14.3 -14.6 12 +13 +13 1021.1 952.4
23 20.05 В 4 30 км 3/0
[Ac trans]
+17.6 -15.4 9 +18 +18 1021.6 952.9
00 21.05 В 4 н/о н/о +22.7 -17.7 6 +20 +20 1021.9 953.1

 

Местоположение метеостанции Джайлс (Западная Австралия, Австралия): широта -25.03 долгота 128.30 высота над уровнем моря 599 м.

В архиве по умолчанию представлена погода в Джайлсе за последнюю неделю. Архивные данные за месяц целиком и за предыдущие месяцы, начиная с января 2011 года, Вы можете получить, выбрав интересующий диапазон дат из раскрывающегося списка и нажав кнопку "Ввод!".


*Определитесь, кто Вы:
робот инопланетянин человек

Внимание! Время в таблицах - всемирное. Для получения местного времени необходимо прибавить поправку, которая равна 8 ч.

Смотрите также архив погоды в соседних городах и на ближайших метеорологических станциях:

Погода в Уорбертоне (Западная Австралия, Австралия) (212 км)
Погода в Кинторе (Северная территория, Австралия) (224 км)
Погода в Юларе (Северная территория, Австралия) (271 км)
Погода в Эрнабелле (Южная Австралия, Австралия) (413 км)
Погода в Раббит Флат (Северная территория, Австралия) (568 км)
Погода в Элис-Спрингсе (Северная территория, Австралия) (581 км)
Погода на Виноградной ферма (Северная территория, Австралия) (614 км)
Погода в Форресте (Западная Австралия, Австралия) (645 км)
Погода в Лавертоне (Западная Австралия, Австралия) (707 км)
Погода в Телфере (Западная Австралия, Австралия) (723 км)

Пояснения к столбцам:

Ветер - указаны скорость ветра в м/с - средняя за 10 мин, порывы в срок и между сроками (в фигурных скобках) и направление, откуда дует ветер: С - северный, СВ - северо-восточный, В - восточный, ЮВ - юго-восточный, Ю - южный, ЮЗ - юго-западный, З - западный, СЗ - северо-западный.
Видимость - горизонтальная дальность видимости в метрах или километрах. При видимости от 1 до 10 км при отсутствии осадков обычно наблюдается дымка, при ухудшении видимости до 1 км и менее - туман. В сухую погоду видимость может ухудшаться дымом, пылью или мглою.
Явления - указаны атмосферные явления, наблюдавшиеся в срок или в последний час перед сроком; фигурными скобками обозначены явления, наблюдавшиеся между сроками (за 1-3 часа до срока); квадратными скобками обозначены град или гололедные отложения с указанием их диаметра в мм.
Облачность - указаны через наклонную черту общая и нижняя облачность в баллах и высота нижней границы облаков в метрах; квадратными скобками обозначены формы облаков: Ci - перистые, Cs - перисто-слоистые, Cc - перисто-кучевые, Ac - высококучевые, As - высокослоистые, Sc - слоисто-кучевые, Ns - слоисто-дождевые, Cu - кучевые, Cb - кучево-дождевые. Подробнее классификацию облаков см. в Атласе облаков (PDF).
T - Температура воздуха - температура, измеренная на высоте 2 м над землей.
Td - Температура точки росы - температура, при понижении до которой содержащийся в воздухе водяной пар достигнет насыщения.
f - Относительная влажность воздуха - влажноcть воздуха, измеренная на высоте 2 м над землей.
Te - Эффективная температура - температура, которую ощущает одетый по сезону человек в тени. Характеристика душности погоды. При расчете учитывается влияние влажности воздуха и скорости ветра на теплоощущения человека.
Tes - Эффективная температура на солнце - температура, которую ощущает человек, с поправкой на солнечный нагрев. Характеристика знойности погоды. Зависит от высоты солнца над горизонтом, облачности и скорости ветра. Ночью, в пасмурную погоду, а также при ветре 12 м/с и более поправка равна нулю.
P - Атмосферное давление - приведенное к уровню моря атмосферное давление.
Po - Атмосферное давление - измеренное на уровне метеостанции атмосферное давление.
Tmin - Минимальная температура - минимум температуры воздуха на высоте 2 м над землей.
Tmax - Максимальная температура - максимум температуры воздуха на высоте 2 м над землей.
R - Количество осадков - Количество выпавших осадков за период времени, мм. При наведении курсора мыши на число - период времени, за который выпало указанное количество осадков.
R24 - Количество осадков - Количество выпавших осадков за 24 часа, мм.
S - Снежный покров - Высота снежного покрова, см. При наведении курсора мыши на число - состояние снежного покрова и степень покрытия местности в баллах.